Miscellaneous Local Product
Issued by NWS North Platte, NE

Home | Current Version | Previous Version | Text Only | Print | Product List | Glossary On
Versions: 1 2 3 4 5 6 7 8 9 10 11 12 13 14 15 16 17 18 19 20 21 22 23 24 25 26 27 28 29 30 31 32 33 34 35 36 37 38 39 40 41 42 43 44 45 46 47 48 49 50
000
AXUS43 KLBF 201710
MISLBF


WESTERN AND NORTH CENTRAL NEBRASKA HOURLY WEATHER ROUNDUP
NATIONAL WEATHER SERVICE NORTH PLATTE NE
1100 AM CST SAT DEC 20 2014

***STATIONS NOT REPORTING VARIABLES SUCH AS SKY/WEATHER OR
PRESSURE ARE PROVIDED BY THE NEBRASKA DEPARTMENT OF
ROADS...RAWS...AND APRS NETWORKS...AND ARE NOT UNDER
NATIONAL WEATHER SERVICE QUALITY CONTROL***

...OBSERVATIONS IN AND NEAR THE EASTERN PANHANDLE OF NEBRASKA...

CITY           SKY/WX    TMP DP  RH WIND       PRES   REMARKS
PINE RIDGE     CLOUDY    37  26  64 W9        29.96R WCI  30
CHADRON        CLOUDY    37  26  64 SW9       29.96R WCI  30
ALLIANCE       CLOUDY    24  20  84 W7        29.97R WCI  16
SIDNEY         PTSUNNY   39  26  59 W10       30.01R WCI  32
WHITECLAY        N/A     36  24  60 CALM        N/A
CRESCENT LAKE    N/A     32  24  72 CALM        N/A
LISCO            N/A     27  19  74 S3          N/A
BIG SPRINGS      N/A     26  22  86 W9          N/A  WCI  17
$$

...OBSERVATIONS IN NORTH CENTRAL NEBRASKA...

CITY           SKY/WX    TMP DP  RH WIND       PRES   REMARKS
VALENTINE      MOSUNNY   25  21  85 SW7       29.96S WCI  17
THEDFORD       MOSUNNY   35  27  73 W5        29.98S WCI  31
AINSWORTH      SUNNY     30  23  75 SW9       29.96S WCI  21
O`NEILL        MOSUNNY  N/A N/A N/A CALM      30.02S
BROKEN BOW     SUNNY     32  27  81 CALM      30.00F
BROWNLEE         N/A     28  19  70 S5          N/A  WCI  22
SPRINGVIEW       N/A     22  20  91 CALM        N/A
BREWSTER         N/A     33  25  73 SW6         N/A  WCI  27
ROSE             N/A     29  29  99 MISG        N/A
SARGENT          N/A     24  23  95 CALM        N/A
COMSTOCK         N/A     33  32  97 CALM        N/A
CHAMBERS         N/A     27  25  92 CALM        N/A
EWING            N/A     29  28  97 CALM        N/A
$$

...OBSERVATIONS IN SOUTHWEST NEBRASKA AND FAR NORTHEAST COLORADO...

CITY           SKY/WX    TMP DP  RH WIND       PRES   REMARKS
WRAY           FAIR      31  25  76 W6        30.04R WCI  26
HOLYOKE        FAIR      34  28  80 W9        30.03R WCI  26
IMPERIAL       CLOUDY    30  22  72 W6        30.02S WCI  24
OGALLALA       CLOUDY    25  21  87 W10       30.02S WCI  14
NORTH PLATTE   MOSUNNY   30  24  78 W6        30.01F WCI  24
MCCOOK         PTSUNNY   33  26  75 W7        30.04S WCI  27
LEXINGTON      SUNNY     31  27  84 CALM      30.03S
PAXTON           N/A     27  24  89 W3          N/A
BRADY            N/A     29  25  83 CALM        N/A
GOTHENBURG       N/A     33  26  75 CALM        N/A
CALLAWAY         N/A     35  30  82 SW13        N/A  WCI  26
$$

...NORTH PLATTE AREA...

CITY           SKY/WX    TMP DP  RH WIND       PRES   REMARKS
AIRPORT        MOSUNNY   30  24  78 W6        30.01F WCI  24
DOWNTOWN         N/A     30  24  79 CALM        N/A
$$

...SOME WEATHER OBSERVATIONS FROM AROUND THE REGION...

CITY           SKY/WX    TMP DP  RH WIND       PRES   REMARKS
DENVER         CLOUDY    38  20  48 W9        30.01R WCI  31
LARAMIE        CLOUDY    32  20  61 CALM      30.02R
CHEYENNE       PTSUNNY   37  20  50 W9        30.01F WCI  30
SCOTTSBLUFF    CLOUDY    27  22  81 CALM      29.99S
RAPID CITY     CLOUDY    42  25  50 CALM      29.92R
PIERRE         PTSUNNY   23  19  85 E6        29.96S FOG     WCI  16
WINNER         FAIR      32  22  66 S9        29.96S WCI  24
SIOUX FALLS    CLOUDY    32  29  88 S9        30.06F WCI  24
OMAHA          CLOUDY    33  31  92 S7        30.14S FOG     WCI  27
GRAND ISLAND   FOG       29  28  96 SE5       30.07F VSB<1/4 WCI  24
KANSAS CITY    CLOUDY    37  33  85 S12       30.17S WCI  29
WICHITA        MOSUNNY   44  37  76 S13       30.16S
HAYS           SUNNY     37  28  70 S3        30.08F
LIBERAL        CLOUDY    32  28  86 SW12      30.13R VSB 1/4 WCI  23
GOODLAND       MOSUNNY   45  32  60 W7        30.03S
$$



USA.gov is the U.S. government's official web portal to all federal, state and local government web resources and services.